BREEZE-M DEB, 39325

Orbit data source: Space-Track

BREEZE-M DEB, 39325 is space debris in HEO originally from a launch on Fri, 14 Mar 2008 UTC launched from the Tyuratam Missile And Space Complex (TTMTR). Debris objects in space refer to the collection of defunct objects orbiting the Earth. Examples of debris include non-operational satellites, rocket bodies, and fragments generated from explosions, collisions, or faulty payload assembly.

Loading next visibility...
Identifier
39325, 2008-011DC
Orbit
HEO
Country
Flag of CISCIS
Related business
Manufacturer
Unknown
Mission
Spacecraft
Bus & Motor
Unknown
Mass
Unknown
Launch date (UTC)
2008-03-14 (18 years ago)
Launch vehicle
Unknown
Launch site
Tyuratam Missile And Space Complex (TTMTR)
Object type
Payload
Rocket body
Debris
Shape & HBR
Unknown shape, 0.3 m
Radar Cross Section
Medium (>0.1 m² and <1 m²)

Expand to show TLE details & history
Last TLE update: 3 days ago

TLE from 3 days ago
0 BREEZE-M DEB
1 39325U 08011DC  26171.17508658  .00015243  00000-0  63663-1 0  9999
2 39325  49.4644  86.6522 6527005  97.9681 335.2411  3.10971922 11295
Epoch: 2026-06-20T04:12Z
TLE epoch observation values (Epoch: 2026-06-20T04:12:07.480Z)
Latitude
0.00002°
Longitude
115.23059°
Altitude
6,129.986 km
Speed
6.606 km/s
True Right ascension
05h 46m 37s
True Declination
0° 00' 00"
Sunlit
Object was in daylight at epoch
Visualization orbit readout
Latitude
Unknown
Longitude
Unknown
Altitude
Unknown
Speed
Unknown
Apparent Right ascension
Unknown
Apparent Declination
Unknown
Sunlit
N/A
Visualization observer readout
Local Sidereal Time
03:30:14
Azimuth
Unknown
Elevation
Unknown
Doppler factor
Unknown
Orbital elements
Apogee altitude
26,390.906 km
Perigee altitude
507.97 km
Semi-major axis
19,827.575 km
Eccentricity
0.6527
Inclination
49.4644°
RAAN
86.6522°
Arg. of periapsis
97.9681°
True anomaly
261.98114°
Mean anomaly
335.2411°
Eccentric anomaly
304.3752°
Mean motion
0.77739 °/min
Orbital period
463.09 mins
BSTAR
0.063663
Loading maneuver chart data...
Computing Atmospheric mass density...
Loading historical data...
Loading historical data...
Loading historical data...
Loading historical data...
Loading historical data...
Loading historical data...
Loading historical data...

Documentation

Showing up to 5 results
|